Rotterdam, Netherlands

10:20 AM CET on February 22, 2017 (GMT +0100)
Rotterdam

Weather History for EHRD - March, 2014

Change the Weather History Date:

Saturday, March 15, 2014

  Actual Average Record
Temperature  
Mean Temperature 46 °F -  
Max Temperature 52 °F 52 °F 60 °F (2011)
Min Temperature 41 °F 38 °F 24 °F (2013)
Degree Days  
Heating Degree Days 18    
Moisture  
Dew Point 43 °F    
Average Humidity 78    
Maximum Humidity 93    
Minimum Humidity 63    
Precipitation  
Precipitation 0.00 in - - ()
Sea Level Pressure  
Sea Level Pressure 30.17 in    
Wind  
Wind Speed 13 mph ()    
Max Wind Speed 20 mph    
Max Gust Speed -    
Visibility 6.2 miles    
Events      
Averages and records for this station are not official NWS values.
T = Trace of Precipitation, MM = Missing Value Source: Averaged Metar Reports

Daily Weather History Graph

Daily Weather History Graph

Search for Another Location

Airport or City:

Trip Planner

Search our weather history database for the weather conditions in past years. The results will help you decide how hot, cold, wet, or windy it might be!

Date:

Astronomy

Mar. 15, 2014 Rise Set
Actual Time 6:56 AM CET 6:46 PM CET
Civil Twilight 6:23 AM CET 7:20 PM CET
Nautical Twilight 5:44 AM CET 7:59 PM CET
Astronomical Twilight 5:03 AM CET 8:40 PM CET
Moon 5:47 PM CET (3/15) 6:06 AM CET (3/15)
Length of Visible Light 12h 56m
Length of Day
11h 49m
Waxing Gibbous, 98% of the Moon is Illuminated
Mar 15
Waxing Gibbous
Mar 16
Full
Mar 24
Last Quarter
Mar 30
New
Apr 7
First Quarter

Hourly Weather History & Observations

Time (CET) Temp. Windchill Dew Point Humidity Pressure Visibility Wind Dir Wind Speed Gust Speed Precip Events Conditions
12:00 AM 47 °F - 44 °F 87% 30.17 in 1 mi West 11.2 mph - -   Mist
12:25 AM 48.2 °F - 44.6 °F 87% 30.15 in 1.8 mi West 13.8 mph - N/A   Partly Cloudy
12:55 AM 46.4 °F 41.5 °F 44.6 °F 93% 30.15 in - West 10.4 mph - N/A   Mist
1:00 AM 47 °F - 43 °F 82% 30.16 in 3 mi West 11.2 mph - -   Mist
1:25 AM 46.4 °F 41.1 °F 42.8 °F 87% 30.15 in 3.7 mi West 11.5 mph - N/A   Unknown
1:55 AM 46.4 °F 41.1 °F 42.8 °F 87% 30.15 in 3.7 mi West 11.5 mph - N/A   Unknown
2:00 AM 47 °F - 44 °F 83% 30.16 in 4 mi West 11.2 mph - -   Mist
2:25 AM 48.2 °F - 42.8 °F 82% 30.15 in 4.3 mi West 11.5 mph - N/A   Overcast
2:55 AM 48.2 °F - 42.8 °F 82% 30.15 in 4.3 mi West 13.8 mph - N/A   Overcast
3:00 AM 48 °F - 44 °F 80% 30.14 in 4 mi West 13.4 mph - -   Mist
3:25 AM 48.2 °F - 44.6 °F 87% 30.12 in 4.3 mi West 16.1 mph - N/A   Overcast
3:55 AM 48.2 °F - 44.6 °F 87% 30.12 in 5.0 mi West 13.8 mph - N/A   Overcast
4:00 AM 48 °F - 44 °F 81% 30.14 in 5 mi West 15.7 mph - -   Mist
4:25 AM 48.2 °F - 44.6 °F 87% 30.12 in 5.0 mi West 16.1 mph - N/A   Overcast
4:55 AM 48.2 °F - 44.6 °F 87% 30.12 in 5.0 mi West 17.3 mph - N/A   Overcast
5:00 AM 48 °F - 44 °F 83% 30.14 in 4 mi West 15.7 mph - -   Mist
5:25 AM 48.2 °F - 44.6 °F 87% 30.12 in 5.0 mi West 15.0 mph - N/A   Overcast
5:55 AM 48.2 °F - 44.6 °F 87% 30.15 in 6.2 mi WNW 15.0 mph - N/A   Mostly Cloudy
6:00 AM 48 °F - 44 °F 81% 30.15 in 7 mi WNW 15.7 mph - -   Overcast
6:25 AM 48.2 °F - 44.6 °F 87% 30.12 in 6.2 mi WNW 12.7 mph - N/A   Mostly Cloudy
6:55 AM 48.2 °F - 42.8 °F 82% 30.12 in 6.2 mi WNW 13.8 mph - N/A   Mostly Cloudy
7:00 AM 48 °F - 43 °F 78% 30.16 in 8 mi WNW 13.4 mph - -   Partly Cloudy
7:25 AM 48.2 °F - 42.8 °F 82% 30.15 in 6.2 mi WNW 15.0 mph - N/A   Mostly Cloudy
7:55 AM 48.2 °F - 42.8 °F 82% 30.15 in 6.2 mi NW 16.1 mph - N/A   Overcast
8:00 AM 48 °F - 43 °F 75% 30.17 in 9 mi NW 13.4 mph - -   Overcast
8:25 AM 48.2 °F - 42.8 °F 82% 30.15 in 6.2 mi WNW 13.8 mph - N/A   Mostly Cloudy
8:55 AM 48.2 °F - 42.8 °F 82% 30.18 in 6.2 mi WNW 13.8 mph - N/A   Mostly Cloudy
9:00 AM 49 °F - 43 °F 74% 30.19 in 8 mi WNW 13.4 mph - -   Partly Cloudy
9:25 AM 48.2 °F - 42.8 °F 82% 30.18 in 6.2 mi NW 15.0 mph - N/A   Scattered Clouds
9:55 AM 50.0 °F - 42.8 °F 76% 30.18 in 6.2 mi NW 16.1 mph - N/A   Mostly Cloudy
10:00 AM 49 °F - 44 °F 75% 30.21 in 7 mi NW 17.9 mph - -   Partly Cloudy
10:25 AM 50.0 °F - 42.8 °F 76% 30.21 in 6.2 mi WNW 17.3 mph - N/A   Mostly Cloudy
10:55 AM 50.0 °F - 42.8 °F 76% 30.21 in 6.2 mi NW 18.4 mph - N/A   Mostly Cloudy
11:00 AM 50 °F - 44 °F 73% 30.22 in 8 mi NW 15.7 mph - -   Partly Cloudy
11:25 AM 50.0 °F - 44.6 °F 82% 30.21 in 6.2 mi NW 16.1 mph - N/A   Mostly Cloudy
11:55 AM 50.0 °F - 42.8 °F 76% 30.21 in 6.2 mi NW 17.3 mph - N/A   Mostly Cloudy
12:00 PM 50 °F - 44 °F 73% 30.23 in 7 mi WNW 15.7 mph - -   Overcast
12:25 PM 50.0 °F - 44.6 °F 82% 30.21 in 6.2 mi WNW 17.3 mph - N/A   Overcast
12:55 PM 50.0 °F - 44.6 °F 82% 30.21 in 6.2 mi NW 15.0 mph - N/A   Mostly Cloudy
1:00 PM 50 °F - 43 °F 71% 30.23 in 8 mi NW 15.7 mph - -   Partly Cloudy
1:25 PM 50.0 °F - 42.8 °F 76% 30.21 in 6.2 mi WNW 15.0 mph - N/A   Overcast
1:55 PM 51.8 °F - 42.8 °F 71% 30.21 in 6.2 mi NW 17.3 mph - N/A   Mostly Cloudy
2:00 PM 52 °F - 44 °F 67% 30.23 in 7 mi WNW 20.1 mph - -   Overcast
2:25 PM 50.0 °F - 42.8 °F 76% 30.21 in 6.2 mi WNW 17.3 mph - N/A   Mostly Cloudy
2:55 PM 51.8 °F - 44.6 °F 76% 30.21 in 6.2 mi NW 18.4 mph - N/A   Mostly Cloudy
3:00 PM 52 °F - 43 °F 63% 30.22 in 6 mi NW 15.7 mph - -   Partly Cloudy
3:25 PM 51.8 °F - 42.8 °F 71% 30.21 in 6.2 mi NW 15.0 mph - N/A   Mostly Cloudy
3:55 PM 51.8 °F - 42.8 °F 71% 30.21 in 6.2 mi WNW 15.0 mph - N/A   Scattered Clouds
4:00 PM 51 °F - 43 °F 67% 30.22 in 7 mi WNW 13.4 mph - -   Overcast
4:25 PM 51.8 °F - 44.6 °F 76% 30.21 in 6.2 mi WNW 15.0 mph - N/A   Partly Cloudy
4:55 PM 50.0 °F - 42.8 °F 76% 30.21 in 6.2 mi WNW 13.8 mph - N/A   Mostly Cloudy
5:00 PM 50 °F - 43 °F 70% 30.22 in 8 mi WNW 13.4 mph - -   Overcast
5:25 PM 50.0 °F - 42.8 °F 76% 30.21 in 6.2 mi WNW 11.5 mph - N/A   Unknown
5:55 PM 50.0 °F - 42.8 °F 76% 30.18 in 6.2 mi West 12.7 mph - N/A   Unknown
6:00 PM 50 °F - 42 °F 65% 30.19 in 9 mi West 11.2 mph - -   Overcast
6:25 PM 50.0 °F - 41.0 °F 71% 30.18 in 6.2 mi West 10.4 mph - N/A   Unknown
6:55 PM 50.0 °F - 42.8 °F 76% 30.18 in 6.2 mi West 9.2 mph - N/A   Overcast
7:00 PM 49 °F - 42 °F 71% 30.18 in 8 mi WSW 8.9 mph - -   Partly Cloudy
7:25 PM 50.0 °F - 42.8 °F 76% 30.18 in 6.2 mi WSW 9.2 mph - N/A   Overcast
7:55 PM 50.0 °F - 42.8 °F 76% 30.18 in 6.2 mi WSW 12.7 mph - N/A   Overcast
8:00 PM 49 °F - 43 °F 71% 30.18 in 9 mi WSW 11.2 mph - -   Overcast
8:25 PM 50.0 °F - 42.8 °F 76% 30.15 in 6.2 mi WSW 11.5 mph - N/A   Overcast
8:55 PM 50.0 °F - 41.0 °F 71% 30.15 in 6.2 mi WSW 11.5 mph - N/A   Overcast
9:00 PM 50 °F - 42 °F 65% 30.16 in 11 mi WSW 11.2 mph - -   Overcast
9:25 PM 50.0 °F - 42.8 °F 76% 30.15 in 6.2 mi WSW 13.8 mph - N/A   Overcast
9:55 PM 50.0 °F - 42.8 °F 76% 30.12 in 6.2 mi WSW 15.0 mph - N/A   Overcast
10:00 PM 51 °F - 42 °F 63% 30.14 in 11 mi WSW 13.4 mph - -   Overcast
10:25 PM 51.8 °F - 42.8 °F 71% 30.12 in 6.2 mi WSW 13.8 mph - N/A   Overcast
10:55 PM 51.8 °F - 44.6 °F 76% 30.12 in 6.2 mi West 12.7 mph - N/A   Overcast
11:00 PM 51 °F - 45 °F 72% 30.14 in 10 mi West 13.4 mph - -   Overcast
11:25 PM 51.8 °F - 44.6 °F 76% 30.12 in 6.2 mi West 15.0 mph - N/A   Overcast
11:55 PM 51.8 °F - 44.6 °F 76% 30.12 in 6.2 mi WNW 13.8 mph - N/A   Overcast